CDT,Max TemperatureF,Mean TemperatureF,Min TemperatureF,Max Dew PointF,MeanDew PointF,Min DewpointF,Max Humidity, Mean Humidity, Min Humidity, Max Sea Level PressureIn, Mean Sea Level PressureIn, Min Sea Level PressureIn, Max VisibilityMiles, Mean VisibilityMiles, Min VisibilityMiles, Max Wind SpeedMPH, Mean Wind SpeedMPH, Max Gust SpeedMPH,PrecipitationIn, CloudCover, Events, WindDirDegrees
2013-3-1,32,29,26,23,20,18,80,69,60,30.23,30.18,30.13,10,10,7,16,9,22,0.00,8,,328
2013-3-2,39,32,24,21,19,16,80,64,41,30.29,30.24,30.17,10,10,8,14,7,18,0.00,4,,338
2013-3-3,57,40,24,28,24,18,80,52,33,30.17,29.99,29.77,10,10,10,16,5,20,0.00,1,,164
2013-3-4,64,54,44,45,37,28,81,55,42,29.84,29.68,29.60,10,10,10,21,10,28,0.00,1,,161
2013-3-5,44,38,32,32,23,18,87,57,39,30.29,30.15,29.88,10,10,5,22,15,33,0.09,2,,323
2013-3-6,48,36,24,25,19,16,74,52,30,30.38,30.31,30.22,10,10,2,15,7,18,0.00,0,,22
2013-3-7,62,48,35,28,25,21,61,41,20,30.26,30.20,30.13,10,10,10,13,8,18,0.00,0,,146
2013-3-8,62,52,42,36,32,28,61,46,34,30.23,30.15,30.03,10,10,10,15,10,21,0.00,4,,140
2013-3-9,68,60,51,55,44,34,94,63,39,30.04,29.85,29.70,10,9,3,22,10,26,1.51,6,Thunderstorm,161
2013-3-10,55,42,30,52,40,25,93,85,77,29.93,29.77,29.66,10,8,1,22,10,26,0.63,8,,235
2013-3-11,44,36,28,27,23,19,86,65,39,30.01,29.94,29.89,10,10,5,18,12,23,0.00,4,,288
2013-3-12,53,40,28,30,25,18,80,52,33,30.31,30.16,30.01,10,10,10,18,5,24,0.00,2,,303
2013-3-13,51,40,28,21,18,14,74,46,26,30.46,30.38,30.31,10,10,10,12,5,,0.00,1,,16
2013-3-14,71,52,32,39,30,19,64,45,31,30.34,30.21,30.10,10,10,10,23,9,29,0.00,0,,191
2013-3-15,78,64,50,46,43,39,67,48,28,30.11,29.95,29.80,10,10,10,23,9,34,0.00,0,,210
2013-3-16,73,62,51,48,43,37,67,49,38,29.86,29.81,29.76,10,10,8,20,9,25,0.00,2,,160
2013-3-17,50,46,41,43,38,36,93,79,62,29.86,29.76,29.67,10,6,2,18,11,26,0.12,8,Thunderstorm,74
2013-3-18,53,44,35,43,36,25,93,71,35,30.03,29.86,29.67,10,8,2,14,7,20,0.00,5,,317
2013-3-19,55,45,35,32,23,16,81,45,23,30.24,30.13,30.01,10,10,10,18,5,23,0.00,1,,67
2013-3-20,46,38,30,28,21,14,86,53,27,30.34,30.22,30.09,10,10,8,18,5,24,0.00,2,,358
2013-3-21,42,38,33,30,21,9,87,61,25,30.08,29.91,29.78,10,9,2,16,10,22,0.21,6,,102
2013-3-22,39,36,33,36,33,28,93,86,81,29.91,29.85,29.80,10,8,2,15,9,21,0.25,8,Thunderstorm,76
2013-3-23,41,38,35,37,35,34,93,90,87,29.89,29.81,29.68,8,4,2,13,8,17,0.00,8,,77
2013-3-24,41,34,28,37,28,18,93,79,60,30.10,29.84,29.63,10,6,2,23,10,32,0.03,7,,302
2013-3-25,33,28,24,21,19,16,80,68,52,30.31,30.19,30.07,10,10,10,17,10,26,0.00,4,,308
2013-3-26,44,34,23,25,20,18,93,62,39,30.40,30.33,30.28,10,10,10,12,4,18,0.00,1,,305
2013-3-27,60,44,28,28,23,19,74,47,23,30.30,30.23,30.13,10,10,10,14,6,18,0.00,1,,148
2013-3-28,69,56,42,46,38,27,67,51,40,30.21,30.17,30.12,10,10,8,16,8,23,0.00,4,,166
2013-3-29,68,60,51,54,50,45,88,74,56,30.20,30.13,30.10,10,10,5,10,5,,0.38,7,Thunderstorm,148
2013-3-30,68,60,53,55,52,50,94,80,60,30.11,29.98,29.89,10,10,4,15,7,23,0.51,5,Thunderstorm,166
2013-3-31,66,57,48,52,44,36,94,66,32,29.98,29.94,29.85,10,8,0,23,5,31,0.03,2,,3